Hourly Weather Ruschicy

Today, 22 April, Thursday

Time Temperature Precipitation Wind Pressure Humidity
00:00 +7°C° 0 mm 2 mps 737 mmHg 82%
01:00 +6°C° 0 mm 2 mps 737 mmHg 83%
02:00 +6°C° 0 mm 2 mps 737 mmHg 83%
03:00 +5°C° 0 mm 2 mps 737 mmHg 85%
04:00 +5°C° 0 mm 2 mps 737 mmHg 86%
05:00 +3°C° 0 mm 3 mps 737 mmHg 88%
06:00 +5°C° 0 mm 3 mps 737 mmHg 84%
07:00 +6°C° 0 mm 4 mps 737 mmHg 80%
08:00 +8°C° 0 mm 4 mps 737 mmHg 77%
09:00 +9°C° 0.4 mm 5 mps 737 mmHg 70%
10:00 +11°C° 0.4 mm 6 mps 737 mmHg 63%
11:00 +12°C° 0.4 mm 7 mps 737 mmHg 55%
12:00 +12°C° 0.4 mm 7 mps 737 mmHg 58%
13:00 +11°C° 0.4 mm 7 mps 737 mmHg 60%
14:00 +11°C° 0.4 mm 7 mps 738 mmHg 63%
15:00 +10°C° 0.2 mm 6 mps 738 mmHg 65%
16:00 +9°C° 0.2 mm 6 mps 738 mmHg 67%
17:00 +8°C° 0.2 mm 5 mps 738 mmHg 70%
18:00 +7°C° 0 mm 4 mps 738 mmHg 72%
19:00 +6°C° 0 mm 4 mps 738 mmHg 73%
20:00 +5°C° 0 mm 3 mps 739 mmHg 75%
21:00 +5°C° 0 mm 3 mps 739 mmHg 74%
22:00 +4°C° 0 mm 4 mps 739 mmHg 73%
23:00 +4°C° 0 mm 4 mps 739 mmHg 72%

Tomorrow, 23 April, Friday

Time Temperature Precipitation Wind Pressure Humidity
00:00 +3°C° 0 mm 4 mps 739 mmHg 75%
01:00 +1°C° 0 mm 4 mps 739 mmHg 78%
02:00 +1°C° 0 mm 4 mps 739 mmHg 81%
03:00 0°C° 0 mm 4 mps 739 mmHg 84%
04:00 -1°C° 0 mm 4 mps 739 mmHg 86%
05:00 -1°C° 0 mm 4 mps 739 mmHg 89%
06:00 -1°C° 0 mm 5 mps 739 mmHg 84%
07:00 0°C° 0 mm 5 mps 740 mmHg 80%
08:00 +1°C° 0 mm 6 mps 740 mmHg 75%
09:00 +1°C° 0 mm 6 mps 740 mmHg 72%
10:00 +2°C° 0 mm 6 mps 740 mmHg 69%
11:00 +2°C° 0 mm 6 mps 740 mmHg 66%
12:00 +3°C° 0.1 mm 6 mps 740 mmHg 63%
13:00 +4°C° 0.1 mm 6 mps 741 mmHg 59%
14:00 +4°C° 0.1 mm 6 mps 741 mmHg 56%
15:00 +4°C° 0.3 mm 6 mps 741 mmHg 58%
16:00 +4°C° 0.3 mm 6 mps 741 mmHg 60%
17:00 +5°C° 0.3 mm 5 mps 741 mmHg 62%
18:00 +4°C° 0.1 mm 4 mps 741 mmHg 66%
19:00 +2°C° 0.1 mm 3 mps 741 mmHg 70%
20:00 +2°C° 0.1 mm 2 mps 741 mmHg 74%
21:00 +1°C° 0 mm 3 mps 741 mmHg 76%
22:00 0°C° 0 mm 3 mps 741 mmHg 78%
23:00 -1°C° 0 mm 3 mps 741 mmHg 80%

Day after tomorrow, 24 April, Saturday

Time Temperature Precipitation Wind Pressure Humidity
00:00 -1°C° 0 mm 3 mps 741 mmHg 82%
01:00 -1°C° 0 mm 3 mps 740 mmHg 84%
02:00 -1°C° 0 mm 3 mps 740 mmHg 86%
03:00 -2°C° 0 mm 4 mps 741 mmHg 86%
04:00 -2°C° 0 mm 5 mps 741 mmHg 86%
05:00 -2°C° 0 mm 5 mps 741 mmHg 86%
06:00 -2°C° 0 mm 5 mps 741 mmHg 79%
07:00 -2°C° 0 mm 6 mps 741 mmHg 73%
08:00 -1°C° 0 mm 6 mps 741 mmHg 66%
09:00 +1°C° 0.1 mm 6 mps 741 mmHg 60%
10:00 +2°C° 0.1 mm 7 mps 741 mmHg 54%
11:00 +2°C° 0.1 mm 8 mps 741 mmHg 49%
12:00 +4°C° 0.1 mm 7 mps 741 mmHg 47%
13:00 +4°C° 0.1 mm 7 mps 741 mmHg 46%
14:00 +5°C° 0.1 mm 7 mps 741 mmHg 44%
15:00 +4°C° 0.1 mm 7 mps 741 mmHg 48%
16:00 +4°C° 0.1 mm 7 mps 741 mmHg 51%
17:00 +4°C° 0.1 mm 7 mps 741 mmHg 54%
18:00 +2°C° 0 mm 6 mps 741 mmHg 58%
19:00 +1°C° 0 mm 5 mps 741 mmHg 62%
20:00 0°C° 0 mm 4 mps 741 mmHg 65%
21:00 -1°C° 0 mm 5 mps 741 mmHg 68%
22:00 -2°C° 0 mm 5 mps 741 mmHg 70%
23:00 -2°C° 0 mm 5 mps 741 mmHg 72%

25 April, Sunday

Time Temperature Precipitation Wind Pressure Humidity
00:00 -4°C° 0 mm 5 mps 741 mmHg 75%
01:00 -4°C° 0 mm 5 mps 741 mmHg 78%
02:00 -4°C° 0 mm 5 mps 741 mmHg 81%
03:00 -4°C° 0 mm 5 mps 741 mmHg 82%
04:00 -5°C° 0 mm 5 mps 741 mmHg 84%
05:00 -5°C° 0 mm 5 mps 741 mmHg 85%
06:00 -4°C° 0 mm 6 mps 741 mmHg 80%
07:00 -3°C° 0 mm 6 mps 741 mmHg 76%
08:00 -3°C° 0 mm 6 mps 741 mmHg 71%
09:00 -1°C° 0.1 mm 6 mps 741 mmHg 66%
10:00 +1°C° 0.1 mm 6 mps 741 mmHg 61%
11:00 +2°C° 0.1 mm 6 mps 741 mmHg 55%
12:00 +3°C° 0.1 mm 6 mps 741 mmHg 52%
13:00 +3°C° 0.1 mm 7 mps 741 mmHg 48%
14:00 +4°C° 0.1 mm 7 mps 741 mmHg 45%
15:00 +4°C° 0.2 mm 6 mps 741 mmHg 51%
16:00 +3°C° 0.2 mm 6 mps 741 mmHg 57%
17:00 +3°C° 0.2 mm 6 mps 741 mmHg 62%
18:00 +2°C° 0.2 mm 5 mps 741 mmHg 68%
19:00 +1°C° 0.2 mm 4 mps 741 mmHg 74%
20:00 +1°C° 0.2 mm 3 mps 741 mmHg 80%
21:00 0°C° 0 mm 3 mps 741 mmHg 82%
22:00 0°C° 0 mm 3 mps 741 mmHg 84%
23:00 -1°C° 0 mm 3 mps 741 mmHg 87%

26 April, Monday

Time Temperature Precipitation Wind Pressure Humidity
00:00 -1°C° 0 mm 3 mps 741 mmHg 88%
01:00 -2°C° 0 mm 2 mps 741 mmHg 89%
02:00 -2°C° 0 mm 2 mps 741 mmHg 90%
03:00 -2°C° 0.1 mm 2 mps 741 mmHg 92%
04:00 -3°C° 0.1 mm 2 mps 740 mmHg 94%
05:00 -3°C° 0.1 mm 2 mps 740 mmHg 95%
06:00 -2°C° 0.1 mm 2 mps 740 mmHg 90%
07:00 -1°C° 0.1 mm 3 mps 740 mmHg 84%
08:00 0°C° 0.1 mm 3 mps 740 mmHg 79%
09:00 +1°C° 0.1 mm 3 mps 740 mmHg 73%
10:00 +2°C° 0.1 mm 3 mps 740 mmHg 66%
11:00 +3°C° 0.1 mm 3 mps 740 mmHg 59%
12:00 +4°C° 0.2 mm 3 mps 740 mmHg 56%
13:00 +4°C° 0.2 mm 3 mps 740 mmHg 53%
14:00 +5°C° 0.2 mm 4 mps 740 mmHg 51%
15:00 +5°C° 0.1 mm 4 mps 740 mmHg 51%
16:00 +5°C° 0.1 mm 3 mps 740 mmHg 51%
17:00 +5°C° 0.1 mm 3 mps 740 mmHg 51%
18:00 +3°C° 0 mm 3 mps 740 mmHg 58%
19:00 +3°C° 0 mm 2 mps 740 mmHg 65%
20:00 +1°C° 0 mm 2 mps 740 mmHg 73%
21:00 +1°C° 0 mm 2 mps 740 mmHg 76%
22:00 -1°C° 0 mm 2 mps 740 mmHg 79%
23:00 -1°C° 0 mm 2 mps 740 mmHg 81%

27 April, Tuesday

Time Temperature Precipitation Wind Pressure Humidity
00:00 -1°C° 0 mm 2 mps 740 mmHg 84%
01:00 -1°C° 0 mm 2 mps 740 mmHg 86%
02:00 -2°C° 0 mm 2 mps 740 mmHg 88%
03:00 -2°C° 0 mm 2 mps 740 mmHg 90%
04:00 -2°C° 0 mm 2 mps 740 mmHg 92%
05:00 -2°C° 0 mm 2 mps 740 mmHg 94%
06:00 -1°C° 0 mm 3 mps 741 mmHg 86%
07:00 +1°C° 0 mm 3 mps 741 mmHg 78%
08:00 +2°C° 0 mm 3 mps 741 mmHg 70%
09:00 +4°C° 0 mm 3 mps 741 mmHg 64%
10:00 +5°C° 0 mm 3 mps 741 mmHg 58%
11:00 +7°C° 0 mm 3 mps 741 mmHg 52%
12:00 +7°C° 0 mm 3 mps 741 mmHg 51%
13:00 +8°C° 0 mm 3 mps 741 mmHg 51%
14:00 +8°C° 0 mm 3 mps 741 mmHg 50%
15:00 +8°C° 0 mm 3 mps 741 mmHg 53%
16:00 +7°C° 0 mm 3 mps 741 mmHg 55%
17:00 +7°C° 0 mm 3 mps 741 mmHg 58%
18:00 +6°C° 0 mm 2 mps 741 mmHg 64%
19:00 +5°C° 0 mm 2 mps 741 mmHg 70%
20:00 +4°C° 0 mm 1 mps 741 mmHg 76%
21:00 +4°C° 0 mm 1 mps 741 mmHg 78%
22:00 +3°C° 0 mm 1 mps 741 mmHg 79%
23:00 +2°C° 0 mm 0 mps 741 mmHg 81%
Show more